TimeCDT,TemperatureF,Dew PointF,Humidity,Sea Level PressureIn,VisibilityMPH,Wind Direction,Wind SpeedMPH,Gust SpeedMPH,PrecipitationIn,Events,Conditions,WindDirDegrees,DateUTC
12:15 AM,62.6,59.0,88,29.86,10.0,SE,10.4,-,N/A,,Overcast,130,2013-05-09 05:15:00
12:55 AM,64.4,60.8,88,29.88,10.0,ESE,10.4,-,N/A,,Overcast,110,2013-05-09 05:55:00
1:35 AM,62.6,60.8,94,29.86,10.0,SE,10.4,-,N/A,Thunderstorm,Overcast,140,2013-05-09 06:35:00
1:55 AM,62.6,60.8,94,29.87,10.0,SE,6.9,-,N/A,,Overcast,140,2013-05-09 06:55:00
2:15 AM,64.4,60.8,88,29.87,10.0,SE,5.8,-,N/A,,Overcast,130,2013-05-09 07:15:00
2:35 AM,64.4,60.8,88,29.90,10.0,NNW,13.8,20.7,N/A,Thunderstorm,Thunderstorm,340,2013-05-09 07:35:00
3:15 AM,64.4,60.8,88,29.87,10.0,SSE,3.5,-,N/A,,Scattered Clouds,150,2013-05-09 08:15:00
3:55 AM,62.6,60.8,94,29.87,10.0,ESE,5.8,-,N/A,,Overcast,110,2013-05-09 08:55:00
4:55 AM,60.8,59.0,94,29.87,10.0,ESE,9.2,-,N/A,Thunderstorm,Mostly Cloudy,110,2013-05-09 09:55:00
5:55 AM,60.8,57.2,88,29.88,10.0,East,6.9,-,N/A,,Mostly Cloudy,80,2013-05-09 10:55:00
6:35 AM,59.0,53.6,82,29.90,10.0,ESE,4.6,-,N/A,,Overcast,110,2013-05-09 11:35:00
6:55 AM,59.0,53.6,82,29.90,10.0,NE,4.6,-,N/A,,Overcast,50,2013-05-09 11:55:00
7:15 AM,59.0,55.4,88,29.90,10.0,East,5.8,-,N/A,,Overcast,80,2013-05-09 12:15:00
9:35 AM,66.2,59.0,78,29.92,10.0,SE,10.4,-,N/A,,Scattered Clouds,130,2013-05-09 14:35:00
9:55 AM,68.0,59.0,73,29.92,10.0,SE,9.2,16.1,N/A,,Clear,130,2013-05-09 14:55:00
10:15 AM,68.0,59.0,73,29.93,10.0,ESE,9.2,-,N/A,,Clear,110,2013-05-09 15:15:00
10:35 AM,68.0,60.8,78,29.93,10.0,SE,5.8,-,N/A,,Mostly Cloudy,140,2013-05-09 15:35:00
10:55 AM,68.0,60.8,78,29.94,10.0,SE,5.8,-,N/A,,Overcast,130,2013-05-09 15:55:00
11:15 AM,68.0,60.8,78,29.95,10.0,SE,4.6,-,N/A,,Overcast,130,2013-05-09 16:15:00
11:35 AM,68.0,60.8,78,29.94,10.0,East,5.8,-,N/A,,Overcast,90,2013-05-09 16:35:00
11:55 AM,69.8,60.8,73,29.93,10.0,NE,5.8,-,N/A,,Overcast,50,2013-05-09 16:55:00
12:15 PM,69.8,60.8,73,29.92,10.0,NE,6.9,-,N/A,,Overcast,40,2013-05-09 17:15:00
12:55 PM,68.0,60.8,78,29.95,10.0,NE,5.8,-,N/A,,Overcast,40,2013-05-09 17:55:00
1:15 PM,68.0,60.8,78,29.97,10.0,ENE,8.1,-,N/A,,Overcast,70,2013-05-09 18:15:00
1:35 PM,68.0,60.8,78,29.97,10.0,ENE,6.9,-,N/A,,Overcast,60,2013-05-09 18:35:00
1:55 PM,68.0,60.8,78,29.97,10.0,NNE,6.9,-,N/A,,Overcast,30,2013-05-09 18:55:00
2:15 PM,69.8,62.6,78,29.96,10.0,North,9.2,-,N/A,,Overcast,10,2013-05-09 19:15:00
2:35 PM,69.8,62.6,78,29.96,10.0,NNE,9.2,-,N/A,,Overcast,30,2013-05-09 19:35:00
3:15 PM,69.8,62.6,78,29.95,10.0,NE,5.8,-,N/A,,Mostly Cloudy,40,2013-05-09 20:15:00
3:35 PM,71.6,62.6,73,29.93,10.0,NNE,9.2,-,N/A,,Mostly Cloudy,30,2013-05-09 20:35:00
3:55 PM,71.6,60.8,69,29.93,10.0,NNE,8.1,-,N/A,,Mostly Cloudy,30,2013-05-09 20:55:00
4:15 PM,71.6,60.8,69,29.93,10.0,North,9.2,-,N/A,,Mostly Cloudy,10,2013-05-09 21:15:00
4:35 PM,71.6,62.6,73,29.92,10.0,NNE,8.1,-,N/A,,Mostly Cloudy,20,2013-05-09 21:35:00
4:55 PM,71.6,60.8,69,29.92,10.0,North,10.4,-,N/A,,Mostly Cloudy,10,2013-05-09 21:55:00
5:15 PM,69.8,60.8,73,29.93,10.0,NE,12.7,-,N/A,,Overcast,40,2013-05-09 22:15:00
5:35 PM,69.8,60.8,73,29.93,10.0,NNE,11.5,-,N/A,,Overcast,20,2013-05-09 22:35:00
5:55 PM,69.8,60.8,73,29.92,10.0,NNE,15.0,-,N/A,,Overcast,30,2013-05-09 22:55:00
6:15 PM,69.8,60.8,73,29.91,10.0,NNE,13.8,-,N/A,,Mostly Cloudy,20,2013-05-09 23:15:00
6:35 PM,69.8,60.8,73,29.92,10.0,NNE,13.8,19.6,N/A,Thunderstorm,Scattered Clouds,30,2013-05-09 23:35:00
6:55 PM,69.8,60.8,73,29.92,10.0,NE,10.4,-,N/A,,Clear,50,2013-05-09 23:55:00
7:15 PM,68.0,60.8,78,29.93,10.0,ENE,9.2,-,N/A,,Scattered Clouds,60,2013-05-10 00:15:00
7:35 PM,69.8,60.8,73,29.92,10.0,East,10.4,-,N/A,,Overcast,80,2013-05-10 00:35:00
7:55 PM,68.0,60.8,78,29.92,10.0,ENE,9.2,-,N/A,,Mostly Cloudy,70,2013-05-10 00:55:00
8:15 PM,68.0,60.8,78,29.93,10.0,East,9.2,-,N/A,,Mostly Cloudy,80,2013-05-10 01:15:00
8:35 PM,66.2,60.8,83,29.96,10.0,ENE,6.9,-,N/A,,Overcast,70,2013-05-10 01:35:00
9:15 PM,64.4,60.8,88,29.96,10.0,NNE,5.8,-,N/A,Thunderstorm,Scattered Clouds,20,2013-05-10 02:15:00
9:35 PM,62.6,60.8,94,29.97,10.0,North,4.6,-,N/A,,Scattered Clouds,360,2013-05-10 02:35:00
9:55 PM,62.6,60.8,94,29.97,10.0,Calm,Calm,-,N/A,,Clear,0,2013-05-10 02:55:00
10:15 PM,62.6,60.8,94,29.98,10.0,Calm,Calm,-,N/A,,Clear,0,2013-05-10 03:15:00
10:35 PM,62.6,60.8,94,29.99,10.0,Calm,Calm,-,N/A,,Clear,0,2013-05-10 03:35:00
10:55 PM,62.6,60.8,94,30.00,10.0,Calm,Calm,-,N/A,,Scattered Clouds,0,2013-05-10 03:55:00
11:35 PM,60.8,59.0,94,30.01,7.0,NNE,3.5,-,N/A,,Mostly Cloudy,20,2013-05-10 04:35:00
11:55 PM,60.8,59.0,94,30.01,7.0,North,4.6,-,N/A,,Mostly Cloudy,350,2013-05-10 04:55:00